When you browse on this site, cookies collect data to enhance your experience and personalize the content and advertising you see.
Visit our Privacy Policy to learn more. By continuing to use the site, you agree to this use of cookies and data.
  • In Hungary
  • List of Countries
  • For 7 days
  • Water Temperature
  • Satellite Maps
  • Weather Map
  • News
  • Weather Widgets
  • user-avatar
    Login

    Hourly Weather karaikal

    Today, 18 April, Thursday

    Time Temperature Precipitation Wind Pressure Humidity
    00:00 +32°C° 0 mm 4 mps 757 mmHg 76%
    01:00 +31°C° 0 mm 3 mps 757 mmHg 77%
    02:00 +31°C° 0 mm 3 mps 756 mmHg 78%
    03:00 +31°C° 0 mm 3 mps 756 mmHg 79%
    04:00 +31°C° 0 mm 3 mps 756 mmHg 81%
    05:00 +30°C° 0 mm 2 mps 756 mmHg 83%
    06:00 +32°C° 0 mm 2 mps 756 mmHg 76%
    07:00 +34°C° 0 mm 2 mps 757 mmHg 70%
    08:00 +35°C° 0 mm 3 mps 757 mmHg 64%
    09:00 +37°C° 0 mm 3 mps 757 mmHg 57%
    10:00 +38°C° 0 mm 4 mps 757 mmHg 51%
    11:00 +41°C° 0 mm 4 mps 757 mmHg 42%
    12:00 +41°C° 0 mm 5 mps 756 mmHg 43%
    13:00 +41°C° 0 mm 6 mps 756 mmHg 44%
    14:00 +41°C° 0 mm 6 mps 755 mmHg 45%
    15:00 +40°C° 0 mm 6 mps 755 mmHg 48%
    16:00 +38°C° 0 mm 6 mps 755 mmHg 51%
    17:00 +36°C° 0 mm 6 mps 755 mmHg 54%
    18:00 +35°C° 0 mm 6 mps 755 mmHg 59%
    19:00 +34°C° 0 mm 5 mps 756 mmHg 64%
    20:00 +33°C° 0 mm 5 mps 756 mmHg 69%
    21:00 +33°C° 0 mm 5 mps 757 mmHg 71%
    22:00 +33°C° 0 mm 5 mps 757 mmHg 73%
    23:00 +32°C° 0 mm 5 mps 757 mmHg 75%

    Tomorrow, 19 April, Friday

    Time Temperature Precipitation Wind Pressure Humidity
    00:00 +32°C° 0 mm 5 mps 756 mmHg 76%
    01:00 +32°C° 0 mm 5 mps 756 mmHg 77%
    02:00 +32°C° 0 mm 4 mps 756 mmHg 79%
    03:00 +32°C° 0.1 mm 4 mps 756 mmHg 79%
    04:00 +30°C° 0.1 mm 4 mps 756 mmHg 80%
    05:00 +30°C° 0.1 mm 4 mps 756 mmHg 81%
    06:00 +33°C° 0 mm 4 mps 756 mmHg 74%
    07:00 +34°C° 0 mm 4 mps 757 mmHg 68%
    08:00 +35°C° 0 mm 4 mps 757 mmHg 61%
    09:00 +36°C° 0 mm 4 mps 757 mmHg 55%
    10:00 +38°C° 0 mm 4 mps 757 mmHg 50%
    11:00 +40°C° 0 mm 4 mps 757 mmHg 44%
    12:00 +41°C° 0 mm 5 mps 756 mmHg 44%
    13:00 +41°C° 0 mm 6 mps 755 mmHg 44%
    14:00 +41°C° 0 mm 7 mps 754 mmHg 45%
    15:00 +40°C° 0.1 mm 6 mps 754 mmHg 48%
    16:00 +38°C° 0.1 mm 6 mps 754 mmHg 52%
    17:00 +36°C° 0.1 mm 6 mps 754 mmHg 55%
    18:00 +35°C° 0.1 mm 6 mps 754 mmHg 60%
    19:00 +34°C° 0.1 mm 5 mps 755 mmHg 65%
    20:00 +33°C° 0.1 mm 5 mps 756 mmHg 70%
    21:00 +33°C° 0 mm 5 mps 756 mmHg 71%
    22:00 +33°C° 0 mm 5 mps 756 mmHg 72%
    23:00 +33°C° 0 mm 5 mps 756 mmHg 73%

    Day after tomorrow, 20 April, Saturday

    Time Temperature Precipitation Wind Pressure Humidity
    00:00 +33°C° 0 mm 5 mps 756 mmHg 74%
    01:00 +32°C° 0 mm 4 mps 755 mmHg 75%
    02:00 +32°C° 0 mm 4 mps 755 mmHg 76%
    03:00 +31°C° 0 mm 3 mps 755 mmHg 77%
    04:00 +31°C° 0 mm 3 mps 755 mmHg 78%
    05:00 +30°C° 0 mm 3 mps 755 mmHg 80%
    06:00 +33°C° 0 mm 3 mps 755 mmHg 73%
    07:00 +34°C° 0 mm 3 mps 756 mmHg 67%
    08:00 +35°C° 0 mm 4 mps 757 mmHg 60%
    09:00 +37°C° 0 mm 4 mps 756 mmHg 54%
    10:00 +38°C° 0 mm 4 mps 756 mmHg 49%
    11:00 +40°C° 0 mm 4 mps 756 mmHg 43%
    12:00 +41°C° 0 mm 5 mps 755 mmHg 42%
    13:00 +42°C° 0 mm 6 mps 754 mmHg 40%
    14:00 +42°C° 0 mm 6 mps 753 mmHg 39%
    15:00 +41°C° 0 mm 7 mps 753 mmHg 43%
    16:00 +39°C° 0 mm 7 mps 753 mmHg 47%
    17:00 +38°C° 0 mm 7 mps 753 mmHg 52%
    18:00 +36°C° 0 mm 7 mps 754 mmHg 57%
    19:00 +35°C° 0 mm 6 mps 754 mmHg 63%
    20:00 +33°C° 0 mm 6 mps 755 mmHg 69%
    21:00 +33°C° 0 mm 6 mps 755 mmHg 71%
    22:00 +33°C° 0 mm 6 mps 755 mmHg 73%
    23:00 +33°C° 0 mm 5 mps 756 mmHg 75%

    21 April, Sunday

    Time Temperature Precipitation Wind Pressure Humidity
    00:00 +33°C° 0 mm 5 mps 755 mmHg 76%
    01:00 +32°C° 0 mm 5 mps 754 mmHg 76%
    02:00 +32°C° 0 mm 5 mps 754 mmHg 77%
    03:00 +32°C° 0.2 mm 4 mps 754 mmHg 78%
    04:00 +31°C° 0.2 mm 3 mps 754 mmHg 79%
    05:00 +30°C° 0.2 mm 3 mps 754 mmHg 80%
    06:00 +33°C° 0 mm 3 mps 755 mmHg 71%
    07:00 +34°C° 0 mm 4 mps 755 mmHg 63%
    08:00 +36°C° 0 mm 5 mps 756 mmHg 55%
    09:00 +37°C° 0 mm 5 mps 756 mmHg 49%
    10:00 +40°C° 0 mm 5 mps 755 mmHg 44%
    11:00 +41°C° 0 mm 5 mps 755 mmHg 38%
    12:00 +42°C° 0 mm 5 mps 754 mmHg 37%
    13:00 +42°C° 0 mm 6 mps 754 mmHg 36%
    14:00 +42°C° 0 mm 6 mps 753 mmHg 36%
    15:00 +41°C° 0 mm 6 mps 753 mmHg 40%
    16:00 +40°C° 0 mm 7 mps 752 mmHg 43%
    17:00 +38°C° 0 mm 7 mps 752 mmHg 47%
    18:00 +36°C° 0 mm 6 mps 753 mmHg 54%
    19:00 +35°C° 0 mm 6 mps 754 mmHg 60%
    20:00 +33°C° 0 mm 6 mps 754 mmHg 67%
    21:00 +33°C° 0 mm 6 mps 755 mmHg 69%
    22:00 +33°C° 0 mm 5 mps 755 mmHg 72%
    23:00 +33°C° 0 mm 5 mps 755 mmHg 74%

    22 April, Monday

    Time Temperature Precipitation Wind Pressure Humidity
    00:00 +32°C° 0 mm 4 mps 754 mmHg 76%
    01:00 +32°C° 0 mm 4 mps 754 mmHg 77%
    02:00 +32°C° 0 mm 4 mps 753 mmHg 78%
    03:00 +32°C° 0 mm 4 mps 753 mmHg 79%
    04:00 +32°C° 0 mm 4 mps 754 mmHg 79%
    05:00 +32°C° 0 mm 4 mps 754 mmHg 79%
    06:00 +33°C° 0 mm 4 mps 754 mmHg 75%
    07:00 +34°C° 0 mm 3 mps 755 mmHg 71%
    08:00 +34°C° 0 mm 3 mps 756 mmHg 67%
    09:00 +36°C° 0.9 mm 3 mps 756 mmHg 61%
    10:00 +37°C° 0.9 mm 3 mps 756 mmHg 55%
    11:00 +38°C° 0.9 mm 3 mps 755 mmHg 49%
    12:00 +40°C° 0 mm 4 mps 755 mmHg 47%
    13:00 +40°C° 0 mm 4 mps 754 mmHg 45%
    14:00 +41°C° 0 mm 5 mps 753 mmHg 43%
    15:00 +40°C° 0 mm 5 mps 753 mmHg 47%
    16:00 +38°C° 0 mm 6 mps 753 mmHg 51%
    17:00 +36°C° 0 mm 6 mps 753 mmHg 55%
    18:00 +35°C° 0 mm 6 mps 754 mmHg 58%
    19:00 +34°C° 0 mm 6 mps 754 mmHg 62%
    20:00 +34°C° 0 mm 6 mps 755 mmHg 65%
    21:00 +33°C° 0 mm 5 mps 755 mmHg 68%
    22:00 +33°C° 0 mm 4 mps 755 mmHg 70%
    23:00 +33°C° 0 mm 3 mps 756 mmHg 72%

    23 April, Tuesday

    Time Temperature Precipitation Wind Pressure Humidity
    00:00 +33°C° 0 mm 3 mps 755 mmHg 73%
    01:00 +31°C° 0 mm 3 mps 755 mmHg 75%
    02:00 +31°C° 0 mm 3 mps 754 mmHg 76%
    03:00 +31°C° 0.1 mm 3 mps 754 mmHg 78%
    04:00 +31°C° 0.1 mm 3 mps 755 mmHg 80%
    05:00 +30°C° 0.1 mm 3 mps 755 mmHg 82%
    06:00 +33°C° 0 mm 3 mps 755 mmHg 75%
    07:00 +34°C° 0 mm 3 mps 756 mmHg 69%
    08:00 +35°C° 0 mm 3 mps 757 mmHg 62%
    09:00 +36°C° 0 mm 3 mps 756 mmHg 56%
    10:00 +37°C° 0 mm 3 mps 756 mmHg 50%
    11:00 +40°C° 0 mm 4 mps 756 mmHg 44%
    12:00 +40°C° 0 mm 4 mps 755 mmHg 44%
    13:00 +40°C° 0 mm 5 mps 754 mmHg 44%
    14:00 +41°C° 0 mm 6 mps 753 mmHg 43%
    15:00 +39°C° 0 mm 6 mps 754 mmHg 49%
    16:00 +38°C° 0 mm 6 mps 754 mmHg 54%
    17:00 +35°C° 0 mm 6 mps 754 mmHg 59%
    18:00 +35°C° 0 mm 6 mps 754 mmHg 63%
    19:00 +34°C° 0 mm 5 mps 755 mmHg 67%
    20:00 +33°C° 0 mm 5 mps 756 mmHg 72%
    21:00 +33°C° 0 mm 5 mps 756 mmHg 73%
    22:00 +32°C° 0 mm 4 mps 756 mmHg 75%
    23:00 +32°C° 0 mm 4 mps 756 mmHg 76%
    Show more